Miscellaneous Local Product
Issued by NWS North Platte, NE

Home | Current Version | Previous Version | Graphics & Text | Print | Product List | Glossary On
Versions: 1 2 3 4 5 6 7 8 9 10 11 12 13 14 15 16 17 18 19 20 21 22 23 24 25 26 27 28 29 30 31 32 33 34 35 36 37 38 39 40 41 42 43 44 45 46 47 48 49 50
050
AXUS43 KLBF 240310
MISLBF


WESTERN AND NORTH CENTRAL NEBRASKA HOURLY WEATHER ROUNDUP
NATIONAL WEATHER SERVICE NORTH PLATTE NE
1000 PM CDT MON APR 23 2018

NOTE: "FAIR" INDICATES FEW OR NO CLOUDS BELOW 12,000 FEET WITH NO
SIGNIFICANT WEATHER AND/OR OBSTRUCTIONS TO VISIBILITY.

NOTE: STATIONS NOT REPORTING VARIABLES SUCH AS SKY/WEATHER OR
PRESSURE ARE PROVIDED BY RAWS AND APRS NETWORKS AND ARE NOT UNDER
NATIONAL WEATHER SERVICE QUALITY CONTROL.

...OBSERVATIONS IN AND NEAR THE EASTERN PANHANDLE OF NEBRASKA...

CITY           SKY/WX    TMP DP  RH WIND       PRES   REMARKS
PINE RIDGE     LGT RAIN  42  40  92 SW22G31   30.17R
GORDON         RAIN      45  42  91 W23G30    30.14R
CHADRON        CLOUDY    40  36  86 W22G29    30.21R WCI  30
ALLIANCE       RAIN      42  41  96 NW17G32   30.17R
SIDNEY         RAIN      46  45  96 NW32G41   30.16R FOG
CRESCENT LAKE    N/A     47  45  93 N16G32      N/A
$$

...OBSERVATIONS IN NORTHERN NEBRASKA AND FAR SOUTHERN SOUTH DAKOTA...

CITY           SKY/WX    TMP DP  RH WIND       PRES   REMARKS
WINNER         CLOUDY    58  42  55 SE12      30.08R
VALENTINE      CLOUDY    61  41  47 SE9       30.07R
AINSWORTH      CLOUDY    55  42  61 SE6       30.09R
O`NEILL        CLOUDY    60  40  47 E5        30.10R
THEDFORD       CLEAR     52  41  65 SE5       30.10R
BROKEN BOW     PTCLDY    49  38  65 CALM      30.08R
ORD            PTCLDY    50  38  63 CALM      30.08R
ALBION         CLOUDY    58  43  56 CALM      30.09R
VALENTINE NWR    N/A     54  40  59 CALM        N/A
HALSEY           N/A     57  38  49 SE5         N/A
BUTTE            N/A     56  41  56 E6          N/A
CHAMBERS         N/A     52  34  51 CALM        N/A
EWING            N/A     58  38  48 CALM        N/A
$$

...OBSERVATIONS IN SOUTHWEST NEBRASKA AND FAR NORTHEAST COLORADO...

CITY           SKY/WX    TMP DP  RH WIND       PRES   REMARKS
WRAY           FAIR      55  39  54 SE9       30.03R
HOLYOKE        FAIR      55  41  58 SE9       30.04R
IMPERIAL       CLEAR     52  42  69 E12       30.04R
OGALLALA       MOCLDY    55  42  60 E7        30.05R
NORTH PLATTE   CLEAR     49  40  71 E6        30.07R
MCCOOK         CLEAR     54  41  61 SE8       30.05R
LEXINGTON      PTCLDY    56  40  53 SE7       30.07S
STAPLETON        N/A     53  40  62 CALM        N/A
GOTHENBURG       N/A     58  38  47 E3          N/A
CALLAWAY         N/A     52  40  64 SE5         N/A
$$

...OBSERVATIONS IN CENTRAL LINCOLN COUNTY AREA...

CITY           SKY/WX    TMP DP  RH WIND       PRES   REMARKS
N.P. AIRPORT   CLEAR     49  40  71 E6        30.07R
N.P. DOWNTOWN    N/A     57  42  57 CALM        N/A
N.P. SOUTHEAST   N/A     55  40  58 CALM        N/A
N.P. HILLCREST   N/A     55  42  61 E8          N/A
$$

...OBSERVATIONS ACROSS THE ROCKIES AND WESTERN HIGH PLAINS...

CITY           SKY/WX    TMP DP  RH WIND       PRES   REMARKS
RAPID CITY     CLOUDY    41  36  82 NW35G45   30.15R
SCOTTSBLUFF    CLOUDY    43  43 100 NW15G24   30.21R
CHEYENNE       CLOUDY    36  34  92 MISG      30.21R
DENVER         CLOUDY    54  43  66 N21G30    30.10R
BERTHOUD PASS  FAIR      27  18  69 N6G22     30.39R WCI  20
MONARCH PASS   MOCLDY    37  18  44 W24       30.47R WCI  26
ASPEN          CLOUDY    50  26  39 VRB3      30.15R
STEAMBOAT      FAIR      48  36  61 E8        30.15R
LARAMIE        CLOUDY    37  33  85 NW21G31   30.21R WCI  26
CASPER         CLOUDY    33  28  81 NE14      30.35R WCI  23
$$

...OBSERVATIONS ACROSS THE NORTHERN PLAINS...

CITY           SKY/WX    TMP DP  RH WIND       PRES   REMARKS
BISMARCK       LGT RAIN  51  36  56 N20G29    30.24R
FARGO          FAIR      54  39  57 N10       30.17R
PIERRE         CLOUDY    59  41  51 E9        30.04S
SIOUX FALLS    PTCLDY    54  41  61 E8        30.14R
$$

...OBSERVATIONS ACROSS THE CENTRAL AND SOUTHERN PLAINS...

CITY           SKY/WX    TMP DP  RH WIND       PRES   REMARKS
OMAHA          PTCLDY    61  31  32 E9        30.07R
GRAND ISLAND   CLOUDY    60  42  51 SE3       30.09R
KANSAS CITY    CLEAR     62  32  32 NE6       30.05R
WICHITA        PTCLDY    62  44  51 N3        30.05R
DODGE CITY     CLOUDY    55  40  56 E7        30.07R
OKLAHOMA CITY  CLEAR     61  47  59 NE6       30.06R
DALLAS         CLEAR     68  51  54 CALM      30.01R
AMARILLO       CLEAR     60  42  51 SE15      30.05R
$$




USA.gov is the U.S. government's official web portal to all federal, state and local government web resources and services.